Time[GMT],current_u[cm/s](10m),current_v[cm/s](10m),current_u[cm/s](14m),current_v[cm/s](14m),current_u[cm/s](18m),current_v[cm/s](18m),current_u[cm/s](22m),current_v[cm/s](22m),current_u[cm/s](26m),current_v[cm/s](26m),current_u[cm/s](30m),current_v[cm/s](30m),current_u[cm/s](34m),current_v[cm/s](34m),current_u[cm/s](38m),current_v[cm/s](38m),current_u[cm/s](42m),current_v[cm/s](42m),current_u[cm/s](46m),current_v[cm/s](46m),current_u[cm/s](50m),current_v[cm/s](50m),current_u[cm/s](54m),current_v[cm/s](54m),current_u[cm/s](58m),current_v[cm/s](58m)
2004-03-22 13:00,-33.55,-24.49,-33.65,-23.79,-30.36,-20.76,-27.53,-18.29,-22.19,-16.96,-14.77,-15.98,-10.38,-11.71,-7.11,-10.05,-2.11,-10.07,3.29,-11.12,5.14,-11.42,4.48,-9.85,4.54,-4.94
2004-03-22 14:00,-28.08,-29.78,-28.02,-28.93,-27.19,-25.99,-24.86,-23.24,-22.33,-21.17,-18.45,-20.58,-12.50,-17.73,-5.20,-16.36,1.23,-16.29,3.06,-16.49,3.01,-17.03,3.38,-15.78,2.96,-10.70
2004-03-22 15:00,-26.27,-37.59,-26.90,-36.10,-25.98,-32.41,-26.24,-29.67,-25.26,-28.04,-21.58,-26.36,-18.06,-26.29,-11.55,-25.05,-4.63,-24.52,1.35,-25.41,4.67,-25.39,4.81,-25.88,4.45,-20.26
2004-03-22 16:00,-26.11,-31.61,-27.33,-29.88,-26.85,-26.83,-26.32,-22.52,-25.33,-18.70,-20.92,-17.02,-15.56,-18.29,-11.51,-20.46,-6.19,-21.23,-0.69,-21.21,3.04,-22.95,3.94,-23.21,5.07,-20.60
2004-03-22 17:00,-20.27,-24.74,-21.48,-23.42,-20.87,-20.12,-21.34,-15.58,-21.10,-12.39,-17.89,-10.53,-13.03,-11.53,-8.64,-13.40,-4.17,-15.24,-1.34,-16.40,1.63,-17.32,3.07,-16.91,2.71,-11.29
2004-03-22 18:00,-4.26,-35.24,-6.04,-30.86,-6.67,-25.73,-6.14,-18.51,-4.88,-13.46,-1.50,-13.64,1.59,-15.36,3.83,-16.27,4.60,-17.51,4.98,-18.13,6.73,-18.77,8.23,-20.01,9.65,-15.54
2004-03-22 19:00,-4.73,-31.42,-5.87,-29.25,-5.63,-25.75,-5.21,-20.32,-1.64,-16.07,0.31,-14.16,1.14,-14.86,1.45,-14.88,1.45,-15.60,1.93,-16.19,1.93,-15.47,2.81,-15.63,-0.06,-11.77
2004-03-22 20:00,12.47,-31.90,11.27,-25.90,11.69,-19.74,11.25,-13.84,14.65,-9.74,15.77,-7.13,15.26,-5.72,15.18,-5.43,14.54,-4.99,14.65,-4.65,14.69,-4.43,14.29,-3.40,11.72,-1.32
2004-03-22 21:00,4.33,-28.93,3.34,-26.92,3.56,-21.87,3.09,-16.59,5.14,-8.51,5.57,-3.81,7.78,-3.18,8.05,-3.41,5.98,-3.80,5.26,-4.21,5.46,-5.61,6.21,-6.44,4.84,-4.54
2004-03-22 22:00,-5.00,-18.49,-6.74,-13.16,-5.98,-6.71,-3.53,0.34,-1.78,5.84,-0.68,9.27,-1.48,9.88,-0.91,9.00,-1.32,8.25,-1.50,7.06,-2.64,6.32,-4.06,5.08,-5.91,3.92
2004-03-22 23:00,3.30,-27.14,2.90,-23.93,3.27,-19.76,4.82,-14.64,7.78,-7.55,10.73,-3.69,10.39,-2.85,9.77,-3.96,9.03,-5.74,9.33,-7.52,10.05,-7.11,11.13,-3.99,11.17,-0.13
2004-03-23 00:00,-16.67,-24.23,-14.27,-21.36,-10.62,-18.12,-8.36,-13.32,-4.36,-7.28,2.38,-2.86,5.06,-2.40,3.23,-2.20,1.76,-3.24,0.86,-5.16,1.65,-5.04,2.94,-3.73,3.90,0.18
2004-03-23 01:00,-12.48,-26.88,-11.01,-24.38,-9.41,-21.63,-7.42,-18.04,-4.11,-15.43,1.44,-12.28,5.86,-7.37,8.74,-6.55,8.34,-6.24,6.76,-6.90,7.01,-7.77,7.70,-7.99,9.29,-7.01
2004-03-23 02:00,-33.16,-25.52,-32.61,-23.07,-28.82,-21.05,-26.74,-20.66,-22.14,-19.66,-14.84,-19.02,-7.85,-16.91,-1.43,-14.97,1.26,-15.66,0.17,-14.41,-1.56,-14.18,-2.81,-14.53,-1.47,-14.47
2004-03-23 03:00,-37.48,-29.67,-37.01,-26.93,-33.46,-23.73,-30.14,-21.53,-26.76,-18.79,-21.97,-17.73,-16.75,-16.34,-13.33,-14.12,-9.61,-12.95,-7.90,-12.35,-8.80,-12.51,-8.96,-11.93,-6.76,-11.61
2004-03-23 04:00,-27.83,-16.50,-26.46,-12.57,-24.97,-10.17,-23.21,-9.77,-20.46,-9.19,-18.59,-9.17,-15.08,-9.83,-10.60,-10.94,-5.54,-11.89,-1.27,-11.18,-2.04,-9.95,1.34,-9.39,8.19,-11.18
2004-03-23 05:00,-12.58,-24.72,-9.45,-21.12,-7.71,-16.67,-6.31,-13.56,-5.39,-13.51,-4.87,-14.60,-3.41,-15.33,0.67,-15.41,4.19,-16.80,8.43,-16.00,8.28,-15.83,9.16,-15.27,15.93,-12.39
2004-03-23 06:00,-6.77,-16.30,-2.42,-12.24,-1.42,-11.75,-1.89,-11.57,-3.01,-12.72,-3.15,-13.70,-2.04,-14.31,0.50,-14.11,3.72,-14.43,7.08,-14.93,9.78,-16.34,11.91,-15.42,13.32,-13.45
2004-03-23 07:00,4.07,-9.86,5.80,-5.72,9.04,-3.96,11.71,-4.55,12.04,-4.98,11.10,-5.35,9.10,-5.61,9.28,-6.60,9.07,-7.70,9.63,-8.58,10.61,-10.17,13.34,-10.64,17.56,-9.01
2004-03-23 08:00,7.11,-7.74,6.78,-5.86,10.90,-4.99,12.63,-7.41,12.45,-8.60,11.17,-9.59,9.97,-9.73,10.16,-9.68,8.85,-10.57,9.97,-11.92,11.35,-13.50,14.39,-15.02,18.69,-11.50
2004-03-23 09:00,14.34,3.69,14.63,3.77,15.63,2.81,15.69,1.16,15.08,1.82,14.72,1.62,13.68,1.63,14.08,1.33,16.07,-0.91,15.22,-4.48,12.46,-8.29,14.73,-8.58,17.42,-5.62
2004-03-23 10:00,18.32,-1.51,19.63,-1.35,19.72,0.14,19.75,0.77,20.82,-0.07,23.08,-2.13,25.31,-4.82,24.33,-9.05,22.10,-11.77,22.88,-11.96,26.65,-8.80,29.41,-4.99,22.49,-1.15
2004-03-23 11:00,19.09,2.35,19.61,2.71,21.11,2.93,22.66,3.68,24.20,4.85,25.31,4.96,25.77,3.74,24.18,-1.60,22.31,-6.72,20.51,-7.34,20.63,-3.76,19.63,0.84,12.04,5.53
2004-03-23 12:00,0.54,-2.97,0.54,-2.24,1.99,-0.78,3.90,-0.55,4.53,-0.57,3.74,-3.61,1.85,-7.90,-0.01,-12.69,-2.86,-13.61,-3.92,-12.46,-2.85,-10.39,-2.83,-6.11,-5.26,2.03
2004-03-23 13:00,-2.57,-4.48,-3.61,-3.74,-2.55,-4.16,-1.81,-3.12,-2.02,-4.22,-2.70,-6.91,-5.34,-10.06,-7.12,-13.27,-10.10,-11.94,-9.88,-9.80,-9.03,-6.23,-8.35,-2.08,-6.70,1.62
2004-03-23 14:00,12.02,-3.84,12.10,-3.40,13.38,-1.68,13.49,-2.07,12.06,-3.62,10.28,-6.11,6.78,-7.32,2.89,-5.73,2.34,-3.08,1.42,-0.95,3.17,-2.73,4.75,-1.34,4.72,1.67
2004-03-23 15:00,4.06,-10.90,2.70,-10.15,3.03,-8.39,4.36,-8.32,4.00,-9.26,1.94,-10.05,-0.72,-10.92,-3.06,-10.76,-4.32,-8.52,-3.07,-5.98,-1.49,-6.77,0.65,-8.45,2.12,-7.40
2004-03-23 16:00,1.12,-13.72,-1.08,-12.58,-2.41,-11.92,-2.73,-10.45,-1.75,-10.59,-0.77,-12.18,-1.39,-12.57,-3.03,-12.31,-4.59,-11.20,-5.94,-9.40,-2.93,-7.19,0.56,-10.66,3.51,-12.62
2004-03-23 17:00,-6.20,-7.39,-4.31,-9.66,-0.25,-9.64,2.78,-8.98,5.17,-9.34,8.29,-10.42,9.29,-11.38,8.52,-11.60,8.40,-10.80,9.70,-10.64,9.51,-9.24,9.80,-7.70,11.75,-7.24
2004-03-23 18:00,-5.96,-18.04,-4.49,-17.72,-0.90,-15.76,-2.98,-16.46,-3.01,-17.09,-3.12,-18.16,-3.09,-18.26,-2.45,-17.97,-2.54,-18.72,-1.83,-16.86,-0.03,-15.51,0.26,-16.88,0.48,-16.92
2004-03-23 19:00,10.32,-3.70,10.39,-4.31,12.05,-3.93,12.49,-3.29,13.66,-3.37,14.38,-3.37,15.24,-4.89,15.53,-5.54,15.51,-4.40,15.19,-2.20,14.81,0.60,14.65,2.22,15.05,1.19
2004-03-23 20:00,18.54,-0.83,19.70,-1.22,20.54,0.58,21.81,-0.62,23.12,-1.91,24.37,-2.28,26.64,-4.02,28.93,-5.13,31.24,-5.20,31.27,-3.11,27.78,-1.82,18.64,-0.07,11.29,0.53
2004-03-23 21:00,25.58,-7.96,24.81,-8.91,25.10,-8.10,23.67,-8.20,23.58,-8.23,24.36,-7.69,25.25,-6.08,26.83,-5.42,28.66,-3.44,29.01,-3.24,28.46,-4.23,23.78,-4.21,15.59,-3.23
2004-03-23 22:00,16.26,0.60,14.37,0.68,13.78,0.93,12.87,1.19,12.75,2.71,13.03,4.25,15.96,4.57,17.80,5.41,19.03,6.91,15.63,6.45,13.65,5.37,13.50,3.35,8.18,3.38
2004-03-23 23:00,27.28,2.82,27.55,2.59,26.29,2.64,24.93,2.67,24.50,2.34,26.62,2.94,29.65,2.88,31.51,1.12,29.22,1.50,23.83,2.14,17.50,1.37,11.78,2.44,7.55,1.96
2004-03-24 00:00,12.43,-1.64,11.88,-1.17,11.76,0.35,11.81,-0.57,12.56,-0.98,11.83,-0.98,13.31,-1.08,14.85,-2.09,13.88,-2.68,9.44,-2.08,4.29,-1.89,-0.52,-3.27,-6.19,-3.44
2004-03-24 01:00,11.38,-6.31,10.94,-8.41,10.90,-9.36,11.74,-9.74,11.26,-9.88,10.47,-10.42,11.53,-10.12,12.20,-10.65,11.30,-11.12,7.34,-11.11,2.92,-9.46,-2.03,-8.90,-4.72,-8.95
2004-03-24 02:00,8.44,-6.22,7.30,-6.23,7.16,-6.48,8.75,-6.23,7.97,-6.04,6.95,-5.39,5.35,-5.23,5.68,-5.66,6.94,-7.17,6.95,-6.12,3.68,-4.15,0.44,-1.54,-0.87,0.48
2004-03-24 03:00,-1.31,-12.86,-1.71,-14.01,-2.68,-13.88,-3.19,-15.37,-2.89,-14.97,-2.19,-14.88,-1.77,-16.32,-2.24,-16.87,-2.13,-17.25,-2.19,-17.79,-5.20,-16.36,-7.08,-13.05,-9.02,-10.28
2004-03-24 04:00,-2.68,-13.88,-2.61,-14.48,-2.05,-13.90,-2.05,-13.90,-1.82,-13.63,-2.08,-14.53,-0.69,-14.66,-0.92,-14.93,-0.76,-15.51,-1.27,-17.73,-2.32,-18.76,-3.68,-15.83,-4.29,-12.26
2004-03-24 05:00,0.25,-8.87,0.20,-9.41,0.35,-8.85,0.75,-8.42,0.83,-8.71,0.77,-8.52,-0.28,-8.82,-2.05,-10.26,-2.59,-13.12,-2.56,-14.67,-4.50,-12.63,-5.76,-11.12,-3.59,-11.43
2004-03-24 06:00,7.31,-5.19,6.72,-5.67,7.59,-6.15,7.63,-6.66,8.69,-7.08,9.06,-8.02,7.55,-10.01,6.88,-12.39,4.94,-13.98,2.85,-11.77,1.60,-7.76,3.03,-6.21,5.84,-8.42
2004-03-24 07:00,13.70,-6.79,13.29,-7.53,11.79,-7.75,10.39,-9.40,9.17,-10.58,7.92,-14.58,6.84,-16.25,4.79,-15.27,2.96,-13.61,2.49,-10.52,3.96,-6.56,3.84,-4.31,4.21,-4.52
2004-03-24 08:00,14.51,-2.71,14.49,-2.30,14.07,-2.63,14.21,-4.56,13.64,-6.60,13.26,-8.89,12.69,-10.51,11.63,-11.54,9.62,-11.08,7.01,-9.23,5.68,-6.38,5.95,-5.16,7.30,-4.78
2004-03-24 09:00,23.44,-2.65,23.23,-1.56,22.61,-1.22,21.68,-0.86,21.55,-1.52,21.83,-1.76,20.76,-1.65,20.43,-2.68,19.38,-3.39,17.60,-4.43,15.33,-5.59,13.99,-5.98,12.01,-3.43
2004-03-24 10:00,25.92,1.39,25.91,1.80,26.36,1.31,25.84,0.95,25.54,-0.18,25.51,-0.81,25.36,-1.37,24.52,-1.71,24.07,-1.95,22.25,-2.16,20.67,-1.36,20.77,-1.33,18.48,-0.22
2004-03-24 11:00,18.77,-3.78,18.83,-3.66,18.93,-4.36,19.40,-4.53,19.43,-3.90,18.49,-4.27,16.77,-3.73,15.48,-3.57,13.99,-4.52,13.07,-5.31,11.78,-5.88,12.13,-4.22,11.83,-3.17
2004-03-24 12:00,16.69,-4.16,16.21,-4.30,16.01,-4.67,15.07,-6.50,15.55,-7.09,14.39,-7.74,13.99,-8.89,13.85,-9.87,12.75,-10.39,11.44,-10.14,10.16,-8.95,9.24,-8.28,7.64,-5.61
2004-03-24 13:00,10.84,-6.26,10.75,-6.28,10.21,-6.23,9.63,-6.39,10.09,-7.62,9.31,-8.88,8.32,-9.06,7.08,-9.10,7.45,-7.85,4.88,-7.24,2.90,-5.41,0.66,-1.58,-1.83,1.66
2004-03-24 14:00,0.29,-9.38,2.42,-8.46,3.88,-8.46,4.77,-9.04,6.11,-9.69,6.78,-9.50,5.71,-10.12,4.77,-9.76,3.41,-9.01,1.60,-9.94,1.02,-9.38,-0.44,-6.47,-0.99,-1.64
2004-03-24 15:00,-0.23,-11.92,2.00,-11.70,2.86,-11.45,3.41,-11.19,4.03,-12.99,3.43,-14.52,2.48,-13.02,2.37,-12.64,1.86,-11.95,0.45,-11.73,-1.35,-10.17,-2.25,-6.68,-2.26,-4.08
2004-03-24 16:00,-5.49,-8.44,-4.11,-9.60,-3.68,-8.96,-3.22,-8.00,-2.18,-9.47,-2.15,-9.56,-1.71,-9.64,-2.16,-8.42,-3.14,-8.28,-3.91,-7.78,-3.76,-7.94,-4.39,-6.46,-5.51,-3.66
2004-03-24 17:00,-3.84,-9.11,-2.44,-9.64,-1.74,-11.00,-0.60,-10.99,-0.97,-11.51,-0.82,-10.95,-0.50,-10.23,-1.09,-9.99,-1.11,-10.30,-1.39,-10.39,-0.02,-10.82,-0.71,-10.60,-1.96,-7.32
2004-03-24 18:00,2.85,-7.40,2.53,-8.84,2.97,-8.93,3.36,-8.82,3.23,-9.48,2.73,-8.79,3.18,-9.28,3.69,-9.24,4.64,-11.47,4.40,-11.01,2.18,-10.51,1.94,-10.78,2.57,-7.17
2004-03-24 19:00,6.12,-10.83,6.86,-11.25,7.03,-11.82,7.48,-12.32,6.89,-12.07,6.82,-11.47,7.15,-12.62,7.40,-14.94,9.31,-14.71,10.93,-13.10,9.87,-11.94,7.63,-13.21,6.67,-13.48
2004-03-24 20:00,13.96,-0.79,15.02,-5.58,15.38,-9.74,15.36,-11.51,15.24,-12.17,14.71,-12.85,14.80,-12.09,15.26,-12.59,15.93,-13.12,16.23,-12.72,15.89,-12.61,13.29,-13.36,15.71,-12.35
2004-03-24 21:00,15.37,-0.28,16.64,-4.70,17.34,-7.52,18.18,-9.36,18.39,-11.17,17.12,-11.11,16.34,-10.92,16.11,-10.47,14.00,-10.03,14.25,-10.17,14.69,-9.52,14.50,-11.03,14.17,-13.52
2004-03-24 22:00,15.09,2.87,14.88,-0.73,13.86,-2.27,13.64,-2.23,13.71,-2.83,13.81,-2.81,12.80,-4.03,11.84,-5.03,10.66,-6.00,9.69,-5.86,7.70,-6.53,5.36,-7.83,5.10,-8.73
2004-03-24 23:00,28.43,0.24,28.74,-1.55,27.54,-2.83,25.32,-5.23,23.19,-7.61,21.42,-8.32,19.11,-8.98,18.32,-8.38,17.07,-8.01,15.69,-9.76,13.58,-10.36,13.32,-11.27,11.94,-11.56
2004-03-25 00:00,15.75,7.11,17.03,5.19,16.96,2.15,16.24,-1.49,13.00,-3.97,10.00,-4.42,5.47,-4.57,3.31,-3.94,1.32,-3.89,0.26,-4.19,-0.49,-4.09,1.73,-4.60,5.26,-3.49
2004-03-25 01:00,7.18,5.80,6.22,4.80,5.67,3.08,4.26,1.12,-0.38,-0.84,-4.05,-2.20,-5.59,-2.64,-7.27,-1.87,-10.03,0.14,-12.20,0.46,-11.72,1.32,-11.53,2.11,-11.48,0.87
2004-03-25 02:00,7.73,-1.95,7.05,-1.73,5.37,-3.87,0.76,-6.65,-3.98,-8.63,-6.63,-9.18,-8.30,-9.14,-10.01,-8.28,-12.08,-7.93,-13.88,-7.10,-13.00,-6.53,-11.73,-5.54,-11.11,-5.16
2004-03-25 03:00,6.43,-2.84,4.52,-4.53,0.57,-5.25,-3.24,-5.40,-7.37,-5.13,-9.63,-5.25,-11.10,-4.11,-11.96,-2.91,-13.84,-2.51,-15.07,-0.78,-13.11,2.18,-12.12,3.81,-9.53,2.78
2004-03-25 04:00,7.91,-3.66,5.22,-3.71,2.85,-4.49,-0.31,-6.54,-3.59,-7.79,-8.36,-6.76,-12.95,-4.54,-14.74,-3.39,-16.51,-4.10,-16.73,-4.79,-16.66,-2.48,-14.94,-0.12,-11.35,0.39
2004-03-25 05:00,11.79,-12.85,8.92,-14.09,4.94,-13.98,2.10,-14.59,-2.31,-14.81,-6.58,-12.60,-10.06,-10.27,-10.47,-8.83,-13.35,-7.15,-16.51,-4.83,-16.52,-3.69,-13.50,-4.80,-8.09,-6.27
2004-03-25 06:00,7.03,-14.73,4.39,-17.15,2.29,-17.44,-2.14,-17.57,-5.98,-16.17,-9.48,-14.47,-12.23,-12.14,-13.57,-8.57,-13.25,-7.12,-13.32,-4.34,-14.08,-0.60,-15.37,-0.45,-12.90,-1.82
2004-03-25 07:00,12.70,-16.02,9.54,-16.61,6.38,-16.48,2.10,-14.59,-1.94,-11.37,-3.25,-7.17,-3.43,-4.73,-2.50,-2.90,-4.59,-0.69,-7.42,-0.25,-7.83,-0.27,-7.35,-1.58,-7.36,-3.36
2004-03-25 08:00,23.51,-8.35,20.07,-7.98,17.50,-7.36,14.02,-7.53,10.87,-5.62,8.53,-3.28,7.17,0.39,7.14,4.13,6.44,6.21,3.57,7.16,1.66,6.20,1.15,4.70,1.32,4.12
2004-03-25 09:00,18.77,-6.69,14.95,-6.43,11.13,-5.45,8.35,-3.74,6.62,-0.60,4.41,3.13,3.23,4.36,3.72,4.81,3.03,5.76,2.33,7.12,0.92,6.61,-0.44,2.27,-2.65,0.18
2004-03-25 10:00,20.38,-7.58,18.07,-6.06,14.98,-4.34,13.04,-0.84,13.46,1.67,14.17,3.54,14.67,5.45,14.98,6.16,15.35,6.69,13.02,8.31,8.84,6.17,5.51,3.66,2.35,2.34
2004-03-25 11:00,17.61,-1.20,16.95,1.11,16.27,3.83,17.54,5.96,19.49,7.14,20.83,8.26,23.55,9.66,24.11,12.42,22.89,13.42,20.40,13.02,16.00,10.61,11.20,7.37,5.89,5.22
2004-03-25 12:00,11.33,-3.62,9.73,-0.54,11.24,0.72,13.12,1.05,15.75,2.02,17.43,3.43,20.18,4.74,21.12,7.61,20.65,7.79,17.81,4.27,13.65,3.18,7.79,2.23,3.28,0.52
2004-03-25 13:00,-1.35,5.44,-2.44,5.96,-0.93,7.22,2.11,7.16,3.64,7.28,6.18,7.49,7.01,8.56,8.28,9.96,8.34,10.82,6.19,8.53,1.08,6.76,-2.79,4.30,-6.60,3.42
2004-03-25 14:00,3.05,0.98,1.29,-0.88,0.01,-0.41,1.07,-1.57,2.57,-2.07,4.23,-1.70,5.83,-2.18,7.03,-2.04,6.42,-2.43,3.90,-3.46,-0.30,-2.58,-3.23,-2.17,-6.17,-2.08
2004-03-25 15:00,-1.11,-3.75,-2.62,-5.02,-3.42,-5.87,-3.29,-5.94,-2.08,-6.53,-1.60,-7.12,-0.68,-7.79,-1.20,-8.15,-1.59,-8.26,-5.10,-7.60,-8.18,-5.57,-7.88,-2.99,-7.58,-2.59
2004-03-25 16:00,1.64,-3.90,0.16,-6.72,-3.00,-7.31,-1.78,-9.04,-1.53,-9.90,-0.27,-10.69,-1.19,-11.47,-1.48,-12.28,-1.34,-12.03,-2.22,-11.87,-3.72,-9.18,-3.10,-6.61,-2.62,-6.47
2004-03-25 17:00,-5.06,0.22,-6.62,-1.58,-9.68,-2.15,-10.99,-3.77,-10.78,-5.58,-11.41,-6.28,-11.84,-8.07,-11.74,-10.23,-12.15,-10.97,-11.08,-8.89,-10.96,-6.78,-9.49,-5.73,-7.23,-6.34
2004-03-25 18:00,-4.68,-2.90,-7.83,-6.82,-11.27,-8.22,-12.40,-9.38,-13.73,-10.90,-14.63,-12.83,-15.28,-14.57,-16.78,-15.52,-17.43,-16.12,-15.27,-13.53,-12.66,-11.01,-10.65,-9.29,-8.77,-9.69
2004-03-25 19:00,9.84,-1.66,8.02,-3.32,5.11,-5.50,1.17,-8.09,-1.85,-9.89,-3.07,-10.35,-4.17,-12.32,-5.11,-13.01,-6.56,-11.97,-4.38,-9.78,-0.19,-8.79,1.82,-9.26,1.97,-10.88
2004-03-25 20:00,13.96,0.67,11.68,-1.54,8.45,-3.72,4.96,-4.61,0.18,-6.08,-2.89,-6.97,-4.88,-9.82,-6.30,-11.06,-7.15,-8.81,-5.37,-5.59,-1.96,-5.87,0.95,-7.32,2.20,-8.42
2004-03-25 21:00,13.89,-0.18,13.64,-2.23,10.47,-3.87,5.21,-4.75,2.35,-4.94,-1.08,-5.30,-3.47,-6.40,-5.13,-7.50,-7.63,-6.76,-6.89,-4.99,-4.54,-4.84,-3.98,-6.44,-5.06,-9.56
2004-03-25 22:00,20.27,4.77,20.30,2.49,17.11,0.53,13.16,-0.91,8.09,-1.01,4.56,-0.67,1.07,-0.11,-1.58,-0.66,-4.56,-0.06,-5.56,2.36,-3.56,2.62,-3.67,0.82,-5.77,-1.65
2004-03-25 23:00,27.17,-6.26,24.68,-9.16,21.01,-11.25,16.78,-11.73,12.34,-10.40,8.11,-8.70,3.95,-8.34,1.78,-6.56,-0.77,-4.59,-0.99,-3.09,1.03,-3.97,1.88,-4.04,1.23,-3.91
2004-03-26 00:00,26.64,-3.29,23.40,-6.51,18.74,-7.32,14.58,-6.23,12.32,-3.44,8.93,-2.12,6.29,-0.17,4.37,0.73,1.76,2.58,-0.55,3.38,-0.33,3.34,-0.54,2.97,-1.66,1.81
2004-03-26 01:00,23.35,-3.82,18.01,-6.60,13.18,-7.15,11.24,-5.10,9.92,-3.40,7.61,-2.60,4.57,-1.08,-0.04,1.24,-2.23,3.42,-2.13,3.45,-2.65,4.54,-3.78,4.85,-4.58,3.27
2004-03-26 02:00,9.21,-5.27,5.50,-7.58,1.37,-8.03,-1.51,-5.63,-2.55,-4.16,-4.13,-1.91,-6.48,0.85,-9.36,3.25,-10.62,6.94,-10.05,6.38,-8.93,7.22,-9.65,7.53,-11.14,5.86
2004-03-26 03:00,3.02,-12.35,-0.64,-14.12,-4.88,-13.46,-7.77,-12.11,-7.89,-9.85,-8.96,-8.29,-9.69,-5.38,-11.63,-2.60,-12.73,0.51,-11.38,2.67,-10.51,3.65,-12.16,4.32,-13.90,2.05
2004-03-26 04:00,3.93,-15.52,-0.26,-17.24,-4.15,-17.10,-6.40,-16.50,-7.55,-13.60,-7.75,-11.79,-8.28,-11.42,-8.45,-11.16,-9.14,-8.03,-8.35,-4.26,-5.09,-2.19,-4.30,0.12,-3.27,-0.21
2004-03-26 05:00,-1.70,-9.33,-5.35,-11.10,-10.51,-10.50,-12.56,-8.07,-13.17,-8.14,-13.28,-7.76,-13.88,-6.37,-13.50,-3.35,-12.39,-1.05,-10.06,0.97,-8.18,3.48,-8.56,4.10,-8.90,2.03
2004-03-26 06:00,-6.25,-13.75,-10.31,-13.77,-10.21,-11.56,-10.71,-7.64,-10.06,-7.36,-9.58,-9.40,-7.47,-10.98,-6.20,-9.58,-5.02,-7.16,-3.14,-5.37,-2.52,-4.26,-5.86,-5.32,-7.88,-6.63
2004-03-26 07:00,-2.19,-12.69,-6.67,-13.04,-7.04,-9.92,-5.76,-6.75,-4.21,-5.26,-4.62,-6.73,-3.40,-7.01,-2.28,-6.58,-0.15,-5.66,-1.44,-5.51,-4.28,-3.93,-6.29,-4.19,-6.73,-4.84
2004-03-26 08:00,1.64,-11.18,-1.81,-11.13,-2.93,-9.37,-1.44,-6.97,-0.04,-5.32,-2.63,-8.24,-3.17,-8.92,-2.81,-9.44,-1.59,-10.44,-1.95,-7.73,-2.58,-4.80,-4.68,-5.09,-6.96,-4.39
2004-03-26 09:00,6.81,-0.54,4.20,-1.60,2.06,0.07,3.93,2.27,5.55,3.15,4.87,2.96,1.29,0.58,-1.07,0.11,-1.83,-1.25,-2.58,-2.61,-2.82,0.03,-4.19,1.92,-4.74,3.11
2004-03-26 10:00,9.91,-11.00,9.18,-11.00,10.14,-10.72,12.49,-10.57,14.85,-8.64,14.73,-8.58,11.13,-9.81,5.67,-11.07,3.85,-12.00,3.51,-11.89,2.84,-8.45,1.93,-5.27,1.44,-3.96
2004-03-26 11:00,14.49,5.71,11.53,5.49,9.53,5.23,10.12,3.52,10.20,1.78,11.21,2.27,11.40,3.06,7.29,3.23,2.09,2.89,-1.64,0.99,-2.41,3.68,-1.16,7.68,-0.45,8.82
2004-03-26 12:00,9.09,2.40,5.42,1.76,5.18,2.63,5.03,1.34,5.85,0.64,7.07,0.36,6.21,0.11,3.21,-1.06,-1.68,0.04,-7.67,0.61,-9.69,2.95,-6.71,7.44,-6.08,8.87
2004-03-26 13:00,10.39,-2.12,7.58,-2.51,7.16,-2.84,6.51,-3.13,7.15,-3.88,6.51,-4.58,5.18,-3.93,2.23,-3.42,0.65,-1.17,-2.77,-0.48,-8.21,-1.10,-7.28,1.45,-2.86,2.72
2004-03-26 14:00,9.85,-9.35,6.68,-8.80,4.58,-8.36,1.87,-9.45,0.46,-9.96,0.54,-10.25,-0.43,-10.11,-2.95,-9.69,-3.31,-7.71,-5.20,-4.71,-7.37,-2.94,-6.70,-2.02,-5.86,-3.14
2004-03-26 15:00,5.14,-7.78,3.71,-7.88,-0.19,-7.34,-3.28,-7.08,-5.79,-8.11,-6.24,-8.34,-6.04,-8.70,-6.73,-8.48,-6.52,-6.65,-9.76,-3.32,-11.85,-1.83,-7.10,-2.45,-5.86,-1.68
2004-03-26 16:00,-5.52,3.31,-7.64,4.88,-10.84,6.26,-13.34,5.54,-16.61,4.60,-17.39,4.07,-19.62,2.39,-19.00,2.78,-18.84,5.11,-20.05,9.34,-17.34,9.70,-16.88,10.98,-16.65,9.48
2004-03-26 17:00,-3.21,-6.22,-5.38,-5.18,-7.81,-3.59,-9.71,-4.24,-12.81,-6.48,-16.37,-6.77,-15.13,-6.73,-13.22,-5.76,-13.08,-2.29,-14.53,2.08,-12.53,5.98,-12.53,8.89,-11.68,8.10
2004-03-26 18:00,-0.83,-16.36,-4.65,-16.10,-6.17,-14.77,-7.13,-13.59,-10.84,-13.72,-13.67,-13.28,-14.43,-13.18,-13.08,-14.98,-12.31,-14.03,-11.35,-10.85,-9.31,-8.18,-8.37,-6.35,-5.32,-9.74
2004-03-26 19:00,-3.04,-8.99,-6.05,-10.47,-9.07,-8.63,-9.29,-7.14,-8.48,-5.97,-10.57,-5.21,-12.83,-2.43,-12.03,-2.30,-11.47,-1.00,-11.29,0.20,-8.69,-0.51,-6.80,-1.32,-4.37,-3.64
2004-03-26 20:00,1.53,-2.79,-2.28,-2.94,-2.35,-1.61,-2.56,0.93,-5.40,5.42,-11.89,7.00,-12.75,6.75,-11.19,6.37,-10.29,6.52,-11.20,8.23,-11.42,9.00,-10.98,6.01,-8.96,2.22
2004-03-26 21:00,3.52,-8.67,-1.38,-8.61,-1.68,-7.56,-0.42,-6.88,-2.65,-2.74,-6.58,0.82,-9.42,1.67,-9.25,1.41,-8.44,2.58,-7.83,4.10,-7.85,4.51,-8.93,2.85,-7.31,0.82
2004-03-26 22:00,5.33,1.73,3.15,-1.18,0.58,-2.02,2.64,-0.49,2.24,1.99,-0.29,5.01,-4.76,7.90,-6.59,8.83,-4.51,7.76,-2.11,7.72,-2.59,8.31,-4.21,6.70,-3.37,3.40
2004-03-26 23:00,8.63,1.12,8.17,-0.57,4.96,-2.43,6.20,-3.84,8.38,-3.11,5.70,1.53,-0.04,4.88,-3.06,8.49,-3.07,8.17,-2.55,7.80,-2.03,8.89,-2.26,7.88,-2.82,4.39
2004-03-27 00:00,13.24,-4.84,11.50,-7.11,8.82,-9.75,7.44,-11.08,8.63,-11.26,8.33,-8.02,3.79,-4.53,0.48,-0.59,-1.48,0.82,-2.12,0.85,-2.73,0.47,-2.72,-1.40,-3.03,-4.30
2004-03-27 01:00,4.45,0.44,1.44,-2.50,-0.92,-5.88,-0.59,-7.76,1.67,-6.91,1.77,-4.38,-3.57,-2.06,-7.42,1.93,-9.03,5.01,-9.45,6.13,-8.45,6.63,-8.14,5.89,-7.49,3.26
2004-03-27 02:00,7.35,-5.70,4.55,-7.54,1.49,-10.29,2.88,-11.87,4.33,-11.14,4.03,-10.08,-0.17,-6.29,-4.85,-2.32,-7.20,2.62,-7.01,5.59,-6.43,5.75,-6.13,4.69,-6.92,2.39
2004-03-27 03:00,2.62,-1.54,1.21,-3.50,-1.44,-5.51,-4.17,-6.50,-6.30,-5.97,-4.47,-4.71,-4.98,-3.30,-7.72,0.08,-7.15,3.88,-7.38,5.79,-7.78,7.55,-7.67,7.17,-9.27,3.69
2004-03-27 04:00,-13.06,-4.16,-14.16,-5.41,-18.26,-8.14,-23.99,-8.12,-23.91,-7.68,-22.29,-6.80,-22.04,-4.03,-21.63,-0.37,-21.37,1.99,-20.21,1.91,-19.21,3.13,-18.38,3.89,-20.17,1.40
2004-03-27 05:00,-3.15,-11.51,-10.83,-11.22,-14.88,-9.78,-14.47,-11.22,-13.06,-9.98,-11.11,-8.80,-10.23,-7.51,-10.22,-6.46,-10.59,-5.53,-10.01,-5.36,-8.97,-4.65,-8.16,-4.94,-8.81,-7.00
2004-03-27 06:00,-1.40,-16.53,-7.78,-18.25,-13.75,-15.90,-15.77,-13.57,-14.83,-12.15,-14.06,-10.48,-14.18,-9.68,-13.26,-11.08,-13.01,-11.95,-12.51,-11.90,-11.35,-11.57,-11.08,-12.53,-9.65,-14.62
2004-03-27 07:00,-7.18,-9.44,-17.70,-9.75,-20.61,-7.57,-21.12,-5.43,-20.49,-4.73,-20.77,-5.22,-19.01,-5.55,-19.24,-6.55,-19.82,-6.72,-20.26,-6.63,-19.49,-6.41,-19.16,-7.57,-18.30,-8.36
2004-03-27 08:00,-5.90,-8.45,-13.35,-7.88,-15.53,-2.78,-15.30,1.13,-13.46,-0.21,-12.60,-1.42,-13.69,-1.22,-14.42,-1.95,-13.16,-2.73,-12.25,-2.99,-11.33,-2.93,-11.59,-3.11,-9.70,-2.47
2004-03-27 09:00,2.25,-14.02,-3.19,-13.92,-8.22,-9.43,-9.64,-4.11,-10.64,-2.42,-9.82,-3.85,-8.36,-5.31,-9.12,-6.67,-9.49,-7.19,-9.42,-7.79,-9.80,-6.45,-8.22,-7.97,-5.54,-8.25
2004-03-27 10:00,-0.39,-14.99,-3.83,-8.79,-6.38,-3.49,-5.70,-3.71,-5.05,-4.88,-3.83,-5.88,-3.29,-7.39,-4.18,-8.27,-5.46,-7.81,-4.91,-7.54,-3.54,-8.71,-2.52,-9.36,-2.60,-10.52
2004-03-27 11:00,0.89,-13.27,-2.00,-11.18,-2.04,-6.31,-3.21,-2.58,-2.47,-3.00,-2.17,-4.78,-2.81,-6.53,-4.41,-6.05,-6.11,-5.91,-5.81,-6.24,-5.63,-6.50,-4.89,-6.91,-3.50,-7.76
2004-03-27 12:00,4.62,-11.05,0.40,-9.04,0.09,-5.38,1.72,0.91,2.10,4.66,2.14,3.42,2.04,2.67,1.10,2.71,0.11,3.26,-0.10,4.34,0.26,2.36,-0.43,1.13,-1.10,0.21
2004-03-27 13:00,-1.20,-18.34,-3.55,-12.67,-1.78,-8.31,-0.55,-3.90,-0.41,-3.65,-0.22,-4.33,-1.12,-3.34,-1.26,-2.13,-1.76,-1.86,-3.05,-3.16,-2.65,-3.46,-1.07,-4.26,-0.08,-4.81
2004-03-27 14:00,-2.53,-16.95,-4.91,-12.64,0.09,-7.57,5.17,-2.79,5.03,-0.85,5.41,0.72,5.12,0.64,4.89,0.36,5.31,1.42,4.78,2.20,3.16,2.78,3.97,1.76,4.60,1.73
2004-03-27 15:00,-12.78,-16.04,-14.97,-10.94,-16.12,-7.63,-11.55,-7.99,-5.59,-7.74,-0.64,-7.57,0.50,-6.10,0.42,-5.08,0.02,-4.78,0.14,-4.85,0.29,-3.56,-1.47,-3.96,-1.45,-3.64
2004-03-27 16:00,-19.73,-13.56,-15.85,-15.46,-11.12,-15.67,-7.30,-15.20,-7.04,-14.29,-7.31,-12.60,-7.67,-12.08,-7.70,-11.98,-6.39,-11.09,-7.82,-10.46,-7.93,-10.07,-8.22,-9.43,-8.28,-8.51
2004-03-27 17:00,-18.76,-1.32,-17.34,0.96,-14.36,-5.05,-10.98,-7.41,-10.37,-7.03,-12.17,-6.92,-10.35,-6.71,-9.19,-6.06,-7.46,-4.84,-6.25,-3.97,-6.14,-2.17,-5.49,-1.16,-5.54,-0.65
2004-03-27 18:00,-20.04,0.60,-17.53,-2.00,-16.82,-6.27,-16.04,-6.47,-17.29,-6.82,-17.70,-6.11,-16.60,-6.32,-14.16,-6.14,-12.29,-6.12,-11.29,-6.35,-10.86,-3.84,-11.04,-2.85,-12.10,-2.43
2004-03-27 19:00,-15.81,-7.65,-14.14,-12.37,-13.78,-13.62,-14.51,-12.89,-15.64,-10.41,-15.02,-9.30,-13.37,-9.97,-11.97,-10.50,-11.05,-10.45,-8.85,-10.86,-8.77,-9.69,-8.57,-8.59,-9.49,-6.46
2004-03-27 20:00,-10.36,-2.34,-8.95,-6.52,-10.50,-12.37,-10.27,-12.09,-10.91,-12.38,-10.51,-11.23,-9.76,-6.96,-7.81,-8.69,-6.41,-9.95,-4.57,-9.11,-3.20,-7.36,-2.08,-7.25,-1.62,-7.43
2004-03-27 21:00,-6.83,-1.96,-5.70,-6.62,-6.82,-11.42,-6.78,-11.20,-6.31,-9.92,-6.16,-8.63,-6.13,-8.00,-5.85,-5.00,-5.34,-3.51,-4.75,-3.03,-3.69,-3.45,-2.02,-4.22,-0.48,-5.23
2004-03-27 22:00,-4.35,-12.06,-1.21,-12.10,-0.06,-13.96,-2.59,-16.76,-2.83,-17.35,-2.58,-17.49,-1.02,-15.69,0.39,-15.18,1.36,-14.17,1.82,-12.17,2.01,-11.39,2.71,-11.29,5.63,-12.02
2004-03-27 23:00,2.53,-2.29,8.61,-1.38,10.52,-1.87,11.43,-4.32,9.21,-6.72,6.39,-8.15,7.45,-7.85,8.21,-7.22,8.99,-5.96,10.28,-5.38,11.17,-3.77,11.42,-3.18,13.45,-2.29
2004-03-28 00:00,-2.84,-4.25,1.24,-3.60,5.66,-3.79,12.05,-6.12,14.13,-7.92,13.66,-9.92,10.04,-11.79,6.78,-12.41,8.06,-12.15,9.50,-12.47,9.61,-12.12,12.11,-12.13,12.92,-12.42
2004-03-28 01:00,1.52,-9.66,7.15,-8.98,12.59,-10.54,13.81,-12.27,10.98,-14.02,6.22,-13.72,4.09,-13.18,2.70,-12.33,4.18,-12.43,5.21,-12.03,6.72,-11.49,7.63,-11.03,7.96,-7.81
2004-03-28 02:00,4.36,-15.60,8.35,-17.16,6.62,-16.93,1.66,-13.78,-0.95,-11.92,-0.67,-10.38,0.57,-10.34,1.46,-10.92,2.01,-9.93,4.04,-9.04,4.50,-8.07,3.18,-7.10,3.25,-5.52